Regional Weather Roundup
Issued by NWS

Home | Current Version | Previous Version | Graphics & Text | Print | Product List | Glossary On
Versions: 1 2 3 4 5 6 7 8 9 10 11 12 13 14 15 16 17 18 19 20 21 22 23 24 25 26 27 28 29 30 31 32 33 34 35 36 37 38 39 40 41 42 43 44 45 46 47 48 49 50
000
ASUS43 KFSD 250402
RWRSD

WEATHER ROUNDUP FOR SOUTH DAKOTA
NATIONAL WEATHER SERVICE SIOUX FALLS SD
1100 PM CDT FRI MAR 24 2017

NOTE: "FAIR" INDICATES FEW OR NO CLOUDS BELOW 12,000 FEET WITH NO
SIGNIFICANT WEATHER AND/OR OBSTRUCTIONS TO VISIBILITY.


SDZ001>005-009-010-012>017-250500-
NORTHWEST AND NORTH CENTRAL SOUTH DAKOTA

CITY           SKY/WX    TMP DP  RH WIND       PRES   REMARKS
BUFFALO          N/A     44  35  70 SE16      29.93F
FAITH            N/A     41  33  73 SE14      30.08R
MOBRIDGE       CLEAR     37  30  75 SE10      30.12R
$$

SDZ012>016-024>037-041>051-057-063-072>074-250500-
SOUTHWEST AND SOUTH CENTRAL SOUTH DAKOTA

CITY           SKY/WX    TMP DP  RH WIND       PRES   REMARKS
RAPID CTY ARPT CLEAR     42  29  59 SE9       30.07R
PIERRE         CLEAR     34  30  85 SE3       30.14R
CUSTER         CLEAR     38  26  62 CALM      30.09F
ELLSWORTH AFB  CLEAR     42  30  63 S8        30.06R
PHILIP         CLEAR     40  30  67 E5        30.11R
PINE RIDGE     CLEAR     40  31  70 CALM      30.10S
SPEARFISH      FAIR      43  30  61 E8        30.02F
WINNER         FAIR      36  30  79 SE7       30.14R
$$

SDZ004>011-016>023-039-040-250500-
NORTHEAST SOUTH DAKOTA

CITY           SKY/WX    TMP DP  RH WIND       PRES   REMARKS
ABERDEEN       CLEAR     30  26  85 E8        30.20R WCI  22
WATERTOWN      CLOUDY    34  32  92 NE8       30.16R WCI  27
BROOKINGS      PTCLDY    35  32  88 E6        30.13F
SISSETON         N/A     29  28  96 NW6       30.19S WCI  23
$$

SDZ017-020-022-023-036>040-048>070-250500-
SOUTHEAST SOUTH DAKOTA

CITY           SKY/WX    TMP DP  RH WIND       PRES   REMARKS
SIOUX FALLS    CLOUDY    38  34  85 NE15      30.13S
HURON          CLOUDY    34  33  96 VRB3      30.17R
CHAMBERLAIN    CLEAR     35  33  92 E3        30.16R
MITCHELL       CLOUDY    39  35  86 E6        30.16S
YANKTON        CLOUDY    37  34  87 NE13      30.12F
$$

ABBREVIATIONS USED IN REMARKS
   TC - TEMPERATURE IN CELSIUS
  WCI - WIND CHILL INDEX
   HX - HEAT INDEX
  VSB - VISIBILITY




USA.gov is the U.S. government's official web portal to all federal, state and local government web resources and services.